Regional Weather Roundup
Issued by NWS Bismarck, ND

Home | Current Version | Previous Version | Text Only | Print | Product List | Glossary On
Versions: 1 2 3 4 5 6 7 8 9 10 11 12 13 14 15 16 17 18 19 20 21 22 23 24 25 26 27 28 29 30 31 32 33 34 35 36 37 38 39 40 41 42 43 44 45 46 47 48 49 50
000
ASUS43 KBIS 251701
RWRBIS

NWR BROADCAST TEXT
NATIONAL WEATHER SERVICE BISMARCK ND
1100 AM CST SUN JAN 25 2015

NOTE: "FAIR" INDICATES FEW OR NO CLOUDS BELOW 12,000 FEET WITH NO
SIGNIFICANT WEATHER AND/OR OBSTRUCTIONS TO VISIBILITY.


CITY           SKY/WX    TMP DP  RH WIND       PRES   REMARKS
WILLISTON      CLOUDY    35  29  78 SW8       29.98S
MINOT          CLOUDY    25  22  88 S5        29.98R WCI  19
MINOT AFB      CLOUDY    24  24  99 W7        29.99R WCI  16
BISMARCK       CLOUDY    36  31  82 NW3       30.01S
DICKINSON      PTSUNNY   34  28  79 W13       29.97R
GARRISON         N/A     32  30  92 W8        29.97S
HETTINGER ARPT MOSUNNY   35  27  72 NW7       30.01S
JAMESTOWN      CLOUDY    21  17  84 CALM      30.02R
CARRINGTON     CLOUDY    21  21 100 MISG      30.02R
CROSBY         CLOUDY    32  32 100 SW8       29.95F
OAKES            N/A     23  21  93 N5        30.04R WCI  17
$$

CITY           SKY/WX    TMP DP  RH WIND       PRES   REMARKS
GRAND FORKS    MOSUNNY   19  10  68 CALM      30.04F
GRAND FORKS AF SUNNY     18  11  72 E3        30.04F
DEVILS LAKE    CLOUDY    19  12  73 SW7       30.00S WCI  10
FARGO          SUNNY     22  14  71 N7        30.05R WCI  13
GWINNER        SUNNY     21  18  86 N6        30.05R WCI  14
$$

CITY           SKY/WX    TMP DP  RH WIND       PRES   REMARKS
ABERDEEN       CLOUDY    28  23  81 N3        30.05R
MOBRIDGE       CLOUDY    38  34  85 NW8       30.00R
BUFFALO          N/A     40  26  57 W10       29.93F
RAPID CITY     MOSUNNY   42  20  41 S6        30.04F
GLASGOW        MOSUNNY   33  27  78 SE10      29.89F
SIDNEY         CLOUDY    32  28  86 CALM      29.99F
WOLF POINT     MOSUNNY   33  28  81 CALM      29.94F
GLENDIVE       MOSUNNY   36  28  75 S9        29.98S
MILES CITY     CLOUDY    35  29  78 S10       29.97F
BAKER          MOSUNNY   37  28  70 W8        29.99R
$$

CITY           SKY/WX    TMP DP  RH WIND       PRES   REMARKS
BILLINGS       CLOUDY    42  30  62 SW17      30.01F
GREAT FALLS    CLOUDY    51  36  56 SW21      29.98R
REGINA         CLOUDY    27  25  93 SE10      29.89F FOG     WCI  17
$$



USA.gov is the U.S. government's official web portal to all federal, state and local government web resources and services.